{"data":{"norad_id":60035,"intl_designator":"2024-111V","name":"STARLINK-31981","alt_names":[],"object_type":"PAYLOAD","status":"ACTIVE","operator":null,"country":"US","launch_date":"2024-06-08","launch_site_code":"AFETR","launch_vehicle":null,"mission":null,"orbit_class":"UNKNOWN","rcs_meters":null,"size_class":null,"mass_kg":null,"dimensions":null,"purposes":["comms"],"wikipedia_slug":null,"has_3d_model":false,"image_url":null,"decayed_at":null,"tle_current":{"epoch":"2026-05-25T02:55:12.751968Z","epoch_age_seconds":60708,"freshness":"FRESH","line1":"1 60035U 24111V   26145.12167537  .00000624  00000+0  33179-4 0  9991","line2":"2 60035  53.1608  80.7401 0001109  82.4352 277.6775 15.30193595110660","mean_motion":15.30193595,"eccentricity":0.0001109,"inclination_deg":53.1608,"raan_deg":80.7401,"arg_perigee_deg":82.4352,"mean_anomaly_deg":277.6775,"bstar":3.3179e-5,"rev_number":11066,"period_min":94.105739607412,"perigee_km":474.47415479614,"apogee_km":475.9942325269,"semimajor_km":6853.3711936615,"source":"CELESTRAK","updated_at":"2026-05-25T13:38:19.151122Z"}}}